FW3090 Weather Reports


Display with metric or nautical units.
time (UTC)temp
F
wind
direction
speed
MPH
gust
MPH
rain 1hr
in
rain 24hr
in
rain mn
in
humidity
%
barometer
mb
20260903152227 72 126 1.0 3.0 0.00 0.04 0.04 86 1012.2
20260903151720 72 126 1.0 3.0 0.00 0.04 0.04 86 1012.0
20260903151215 72 88 1.0 4.0 0.00 0.04 0.04 85 1012.1
20260903150709 72 87 2.0 4.0 0.00 0.04 0.04 85 1012.0
20260903150202 72 115 2.0 6.0 0.00 0.04 0.04 86 1011.8
20260903145657 72 63 3.0 7.0 0.00 0.04 0.04 86 1012.0
20260903145151 72 92 3.0 7.0 0.00 0.04 0.04 86 1011.5
20260903144645 71 90 2.0 7.0 0.00 0.04 0.04 87 1011.5
20260903144138 71 91 0.0 6.0 0.00 0.04 0.04 88 1011.7
20260903143633 71 88 0.0 0.0 0.00 0.04 0.04 89 1011.8
20260903143126 71 88 0.0 1.0 0.00 0.04 0.04 88 1011.8
20260903142621 71 89 1.0 6.0 0.00 0.04 0.04 88 1011.7
20260903142115 71 88 1.0 6.0 0.00 0.04 0.04 89 1011.9
20260903141609 70 88 2.0 4.0 0.00 0.04 0.04 89 1012.0
20260903141103 70 88 2.0 4.0 0.00 0.04 0.04 89 1012.0
20260903140825 70 165 1.0 4.0 0.00 0.04 0.04 88 1012.3
20260903140051 70 176 1.0 2.0 0.00 0.04 0.04 88 1012.5
20260903135546 70 176 1.0 2.0 0.00 0.04 0.04 87 1012.2
20260903135300 70 176 1.0 2.0 0.00 0.04 0.04 87 1011.9
20260903134533 70 176 2.0 5.0 0.01 0.04 0.04 87 1012.1
20260903134027 70 176 2.0 5.0 0.02 0.04 0.04 87 1012.0
20260903133521 70 209 1.0 4.0 0.02 0.04 0.04 87 1012.3
20260903133015 70 248 0.0 2.0 0.02 0.04 0.04 88 1012.4
20260903132509 70 248 1.0 2.0 0.02 0.04 0.04 87 1012.5
20260903132003 70 248 1.0 3.0 0.02 0.04 0.04 87 1012.7
20260903131456 70 248 2.0 3.0 0.03 0.04 0.04 87 1012.3
20260903131216 70 230 2.0 10.0 0.03 0.04 0.04 86 1012.4
20260903130445 70 215 2.0 10.0 0.03 0.04 0.04 86 1012.3
20260903125938 71 133 1.0 6.0 0.04 0.04 0.04 86 1012.5
20260903125433 71 158 1.0 7.0 0.04 0.04 0.04 86 1012.6
20260903124927 71 158 2.0 7.0 0.03 0.03 0.03 86 1012.6
20260903124421 71 238 1.0 4.0 0.02 0.02 0.03 86 1012.3
20260903123915 71 57 1.0 3.0 0.02 0.02 0.02 85 1012.2
20260903123626 71 16 1.0 3.0 0.02 0.02 0.02 85 1012.3
20260903122902 71 17 1.0 3.0 0.02 0.02 0.02 85 1012.3
20260903122357 71 339 1.0 2.0 0.02 0.02 0.02 85 1012.2
20260903121850 71 320 2.0 5.0 0.02 0.02 0.02 85 1012.3
20260903121345 71 319 3.0 6.0 0.01 0.01 0.01 85 1012.4
20260903120839 71 173 4.0 8.0 0.01 0.01 0.01 85 1012.5
20260903120332 71 292 5.0 15.0 0.01 0.01 0.01 85 1012.5
20260903115827 71 258 6.0 15.0 0.00 0.00 0.00 86 1012.6
20260903115541 71 280 5.0 11.0 0.00 0.00 0.00 87 1012.6
20260903114815 71 269 4.0 8.0 0.00 0.00 0.00 89 1012.6
20260903114308 71 267 4.0 8.0 0.00 0.00 0.00 89 1012.5
20260903113803 71 315 3.0 8.0 0.00 0.00 0.00 90 1012.2
20260903113257 71 276 3.0 6.0 0.00 0.00 0.00 90 1012.2
20260903112751 71 246 3.0 7.0 0.00 0.01 0.00 90 1011.9
20260903112244 71 266 2.0 9.0 0.00 0.01 0.00 90 1011.9
20260903111959 70 261 0.0 9.0 0.00 0.01 0.00 90 1011.8
20260903111232 70 192 0.0 0.0 0.00 0.01 0.00 90 1011.7
20260903110944 70 192 0.0 0.0 0.00 0.01 0.00 90 1011.8
20260903110439 70 192 0.0 0.0 0.00 0.01 0.00 90 1011.9
20260903105715 70 192 0.0 0.0 0.00 0.02 0.00 90 1011.8
20260903105209 70 192 0.0 0.0 0.00 0.02 0.00 90 1011.8
20260903104709 70 192 0.0 0.0 0.00 0.02 0.00 90 1011.7
20260903104432 70 192 0.0 0.0 0.00 0.03 0.00 90 1011.7
20260903103707 70 192 0.0 0.0 0.00 0.04 0.00 90 1011.7
20260903103206 70 175 0.0 0.0 0.00 0.07 0.00 90 1011.8
20260903102928 70 82 0.0 0.0 0.00 0.12 0.00 89 1011.8
20260903102202 70 82 0.0 0.0 0.00 0.16 0.00 90 1011.6
20260903101702 70 82 0.0 0.0 0.00 0.16 0.00 89 1011.5
20260903101419 70 82 0.0 0.0 0.00 0.18 0.00 90 1011.3
20260903100701 70 82 0.0 0.0 0.00 0.24 0.00 89 1011.2
20260903100158 70 82 0.0 0.0 0.00 0.25 0.00 89 1011.0
20260903095920 70 82 0.0 0.0 0.00 0.25 0.00 89 1011.0
20260903095158 70 82 0.0 0.0 0.00 0.25 0.00 89 1011.1
20260903094656 70 82 0.0 0.0 0.00 0.25 0.00 89 1011.0
20260903094156 70 82 0.0 0.0 0.00 0.25 0.00 89 1010.9
20260903093657 70 82 0.0 0.0 0.00 0.25 0.00 89 1011.0
20260903093415 70 82 0.0 2.0 0.00 0.25 0.00 89 1010.9
20260903092913 70 82 1.0 3.0 0.00 0.25 0.00 89 1010.9
20260903092154 70 82 1.0 5.0 0.00 0.25 0.00 89 1010.7
20260903091651 70 82 1.0 5.0 0.00 0.25 0.00 89 1010.6
20260903091413 70 82 0.0 0.0 0.00 0.25 0.00 89 1010.6
20260903090915 71 82 0.0 0.0 0.00 0.25 0.00 89 1010.7
20260903090151 71 82 0.0 0.0 0.00 0.26 0.00 89 1010.8
20260903085651 71 82 0.0 0.0 0.00 0.27 0.00 88 1010.7
20260903085151 71 82 0.0 0.0 0.00 0.27 0.00 88 1010.6
20260903084650 71 82 0.0 0.0 0.00 0.28 0.00 88 1010.8
20260903084150 71 82 0.0 0.0 0.00 0.28 0.00 88 1010.9
20260903083650 71 82 0.0 0.0 0.00 0.28 0.00 88 1011.0
20260903083150 71 82 0.0 0.0 0.00 0.28 0.00 88 1011.0
20260903082914 71 82 0.0 0.0 0.00 0.28 0.00 88 1010.9
20260903082150 71 82 0.0 0.0 0.00 0.28 0.00 88 1011.0
20260903081651 71 82 0.0 1.0 0.00 0.28 0.00 88 1010.9
20260903081151 71 82 1.0 2.0 0.00 0.28 0.00 88 1011.0
20260903080650 71 82 1.0 2.0 0.00 0.28 0.00 88 1010.9
20260903080150 72 82 1.0 2.0 0.00 0.28 0.00 87 1010.8
20260903075651 72 82 0.0 1.0 0.00 0.28 0.00 87 1010.8
20260903075150 72 82 1.0 2.0 0.00 0.28 0.00 87 1010.8
20260903074651 72 82 1.0 2.0 0.00 0.29 0.00 87 1010.8
20260903074151 72 82 1.0 2.0 0.00 0.30 0.00 87 1010.8
20260903073650 72 82 2.0 3.0 0.00 0.36 0.00 87 1010.9
20260903073150 72 82 2.0 4.0 0.00 0.44 0.00 87 1010.9
20260903072648 72 82 2.0 4.0 0.00 0.66 0.00 87 1011.0
20260903072146 72 82 2.0 5.0 0.00 0.71 0.00 87 1011.1
20260903071646 73 82 3.0 5.0 0.00 0.71 0.00 87 1011.1
20260903071146 73 82 2.0 4.0 0.00 0.71 0.00 86 1011.1
20260903070644 73 81 2.0 4.0 0.00 0.71 0.00 86 1011.2
20260903070142 73 81 2.0 4.0 0.00 0.71 0.00 86 1011.2
20260903065907 73 80 2.0 4.0 0.00 0.71 0.00 86 1011.3
20260903065138 73 80 2.0 3.0 0.00 0.71 0.00 86 1011.4
20260903064636 74 80 2.0 3.0 0.00 0.71 0.00 86 1011.4
20260903064136 74 80 2.0 3.0 0.00 0.71 0.00 86 1011.3
20260903063636 74 80 2.0 3.0 0.00 0.71 0.00 85 1011.4
20260903063135 74 80 2.0 4.0 0.00 0.71 0.00 85 1011.5
20260903062627 74 80 1.0 4.0 0.00 0.71 0.00 85 1011.4
20260903062122 74 75 2.0 3.0 0.00 0.71 0.00 85 1011.4
20260903061615 74 75 2.0 3.0 0.00 0.71 0.00 85 1011.5
20260903061110 74 75 3.0 5.0 0.00 0.71 0.00 85 1011.5
20260903060603 74 75 3.0 5.0 0.00 0.71 0.00 85 1011.5
20260903060058 74 83 3.0 6.0 0.00 0.71 0.00 86 1011.5
20260903055552 74 90 3.0 6.0 0.00 0.71 0.00 86 1011.5
20260903055046 74 89 3.0 5.0 0.00 0.71 0.00 86 1011.5
20260903054546 74 82 3.0 4.0 0.00 0.71 0.00 86 1011.4
20260903054308 74 76 3.0 5.0 0.00 0.71 0.00 85 1011.5
20260903053545 74 76 3.0 6.0 0.00 0.71 0.00 86 1011.5
20260903053044 74 83 3.0 6.0 0.00 0.71 0.00 86 1011.5
20260903052543 74 86 3.0 6.0 0.00 0.71 0.00 86 1011.5
20260903052043 74 88 3.0 4.0 0.00 0.71 0.00 86 1011.5
20260903051543 74 88 3.0 5.0 0.00 0.72 0.00 86 1011.5
20260903051522 74 88 3.0 5.0 0.00 0.75 0.00 86 1011.6
20260903050542 74 84 3.0 4.0 0.00 0.76 0.00 86 1011.4
20260903050042 74 80 3.0 5.0 0.00 0.78 0.00 86 1011.6
20260903045540 74 81 3.0 5.0 0.00 0.78 0.78 86 1011.5
20260903045040 74 80 3.0 4.0 0.00 0.79 0.78 87 1011.5
20260903044541 74 81 3.0 4.0 0.00 0.79 0.78 87 1011.5
20260903044042 74 85 1.0 4.0 0.00 0.80 0.78 87 1011.6
20260903044023 74 86 0.0 0.0 0.00 0.81 0.78 87 1011.5
20260903043041 74 87 0.0 0.0 0.00 0.81 0.78 87 1011.6
20260903042541 74 87 0.0 0.0 0.00 0.81 0.78 87 1011.6
20260903042041 74 78 0.0 0.0 0.00 0.81 0.78 87 1011.6
20260903041540 74 78 0.0 0.0 0.00 0.81 0.78 87 1011.6
20260903041041 74 78 0.0 0.0 0.00 0.81 0.78 87 1011.6
20260903040541 74 78 0.0 0.0 0.00 0.81 0.78 87 1011.6
20260903040310 74 78 0.0 0.0 0.00 0.81 0.78 87 1011.8
20260903035540 74 78 0.0 0.0 0.00 0.81 0.78 87 1011.8
20260903035300 74 78 0.0 0.0 0.00 0.81 0.78 87 1011.8
20260903034540 74 78 0.0 0.0 0.00 0.81 0.78 87 1011.8
20260903034041 74 78 0.0 0.0 0.00 0.81 0.78 87 1011.7
20260903033541 74 76 0.0 0.0 0.00 0.81 0.78 87 1011.7
20260903033040 74 76 0.0 0.0 0.00 0.81 0.78 87 1011.8
20260903032759 74 113 0.0 0.0 0.00 0.81 0.78 86 1011.7
20260903032039 74 113 0.0 0.0 0.00 0.81 0.78 86 1011.7
20260903031759 74 113 0.0 0.0 0.00 0.81 0.78 86 1011.8
20260903031300 75 113 0.0 0.0 0.00 0.81 0.78 86 1011.8
20260903030532 75 113 0.0 0.0 0.00 0.81 0.78 86 1011.7
20260903030245 75 113 0.0 0.0 0.00 0.81 0.78 86 1011.7
20260903025521 75 113 0.0 0.0 0.00 0.81 0.78 86 1011.7
20260903025013 75 113 0.0 0.0 0.00 0.81 0.78 86 1011.7
20260903024508 75 113 0.0 0.0 0.00 0.81 0.78 85 1011.6
20260903024003 75 113 0.0 0.0 0.00 0.81 0.78 85 1011.7
20260903023456 75 136 0.0 0.0 0.00 0.81 0.78 84 1011.9
20260903022949 76 192 0.0 0.0 0.00 0.81 0.78 84 1011.9
20260903022444 76 192 0.0 0.0 0.00 0.81 0.78 84 1011.9
20260903021938 76 192 0.0 0.0 0.00 0.81 0.78 84 1011.8
20260903021653 76 192 0.0 0.0 0.00 0.81 0.78 84 1011.7
20260903020926 76 193 0.0 0.0 0.00 0.81 0.78 83 1011.7
20260903020421 77 193 0.0 0.0 0.00 0.81 0.78 82 1011.6
20260903015914 77 193 0.0 0.0 0.00 0.81 0.78 82 1011.5
20260903015407 77 193 0.0 0.0 0.00 0.81 0.78 82 1011.5
20260903014902 77 193 0.0 0.0 0.00 0.81 0.78 82 1011.5
20260903014355 78 193 0.0 0.0 0.00 0.81 0.78 82 1011.4
20260903013850 78 193 0.0 0.0 0.00 0.81 0.78 81 1011.3
20260903013606 78 193 0.0 0.0 0.00 0.81 0.78 81 1011.3
20260903012838 78 193 0.0 0.0 0.00 0.81 0.78 81 1011.3
20260903012332 79 193 0.0 0.0 0.00 0.81 0.78 80 1011.2
20260903011826 79 193 0.0 0.0 0.00 0.81 0.78 79 1011.2
20260903011319 79 193 0.0 0.0 0.00 0.81 0.78 79 1011.2
20260903010814 80 193 0.0 0.0 0.00 0.81 0.78 79 1011.1
20260903010308 80 193 0.0 0.0 0.00 0.81 0.78 78 1011.0
20260903010024 80 193 0.0 0.0 0.00 0.81 0.78 78 1011.0
20260903005256 81 193 0.0 0.0 0.00 0.81 0.78 77 1010.9
20260903004749 81 193 0.0 0.0 0.00 0.81 0.78 76 1011.0
20260903004244 81 193 0.0 0.0 0.00 0.81 0.78 75 1011.0
20260903003738 82 193 0.0 0.0 0.00 0.81 0.78 75 1011.1
20260903003232 82 193 0.0 0.0 0.00 0.81 0.78 74 1011.0
20260903002727 83 193 0.0 0.0 0.00 0.81 0.78 74 1011.0
20260903002219 83 193 0.0 0.0 0.00 0.81 0.78 73 1011.1
20260903001714 83 193 0.0 0.0 0.00 0.81 0.78 72 1010.9
20260903001208 84 193 0.0 0.0 0.00 0.81 0.78 72 1010.9
20260903000924 84 193 0.0 0.0 0.00 0.81 0.78 71 1010.8
20260903000156 85 193 0.0 0.0 0.00 0.81 0.78 71 1010.8
20260902235650 85 193 0.0 0.0 0.00 0.81 0.78 71 1010.8
20260902235143 85 193 0.0 0.0 0.00 0.81 0.78 70 1010.8
20260902234901 85 193 0.0 0.0 0.00 0.81 0.78 69 1010.7
20260902234132 86 193 0.0 0.0 0.00 0.81 0.78 67 1010.7
20260902233625 86 193 0.0 0.0 0.00 0.81 0.78 67 1010.6
20260902233343 86 193 0.0 2.0 0.00 0.81 0.78 66 1010.5
20260902232613 86 193 1.0 4.0 0.00 0.81 0.78 65 1010.6
20260902232110 86 193 1.0 4.0 0.00 0.81 0.78 66 1010.6
20260902231602 86 187 1.0 3.0 0.00 0.81 0.78 65 1010.7
20260902231055 86 187 1.0 7.0 0.00 0.81 0.78 65 1010.7
20260902230550 87 186 3.0 7.0 0.00 0.81 0.78 64 1010.7
20260902230043 87 186 4.0 7.0 0.00 0.81 0.78 64 1010.6
20260902225538 87 159 3.0 9.0 0.00 0.81 0.78 64 1010.7
20260902225255 87 166 3.0 7.0 0.00 0.81 0.78 63 1010.7
20260902224526 87 218 3.0 7.0 0.00 0.81 0.78 63 1010.7
20260902224020 87 200 2.0 7.0 0.00 0.81 0.78 63 1010.7
20260902223514 87 223 2.0 5.0 0.00 0.81 0.78 64 1010.8
20260902223008 87 217 3.0 5.0 0.00 0.81 0.78 64 1010.8
20260902222501 87 223 2.0 5.0 0.00 0.81 0.78 63 1010.8
20260902221957 87 220 2.0 4.0 0.00 0.81 0.78 64 1010.8
20260902221450 87 181 2.0 5.0 0.00 0.81 0.78 64 1010.8
20260902221202 87 209 1.0 5.0 0.00 0.81 0.78 64 1010.7
20260902220437 87 185 2.0 4.0 0.00 0.81 0.78 64 1010.9
20260902215931 87 198 3.0 7.0 0.00 0.81 0.78 63 1010.8
20260902215647 87 165 3.0 6.0 0.00 0.81 0.78 64 1010.8
20260902214920 87 197 3.0 8.0 0.00 0.81 0.78 64 1010.9
20260902214414 87 227 3.0 8.0 0.00 0.81 0.78 64 1010.9
20260902213907 87 180 3.0 7.0 0.00 0.81 0.78 64 1010.8
20260902213401 87 184 3.0 8.0 0.00 0.81 0.78 64 1010.9
20260902212857 87 174 1.0 7.0 0.00 0.81 0.78 65 1011.0
20260902212350 87 174 2.0 6.0 0.00 0.81 0.78 64 1011.0
20260902211844 87 221 2.0 7.0 0.00 0.81 0.78 64 1011.0
20260902211337 87 169 2.0 6.0 0.00 0.81 0.78 66 1011.0
20260902211318 87 249 4.0 10.0 0.00 0.81 0.78 63 1011.0
20260902210600 87 173 3.0 10.0 0.00 0.81 0.78 64 1011.0
20260902205838 87 213 1.0 5.0 0.00 0.81 0.78 62 1011.0
20260902205337 87 214 2.0 5.0 0.00 0.81 0.78 64 1011.1
20260902204837 88 203 3.0 7.0 0.00 0.81 0.78 61 1011.1
20260902204335 90 234 3.0 7.0 0.00 0.81 0.78 59 1011.1
20260902204315 90 184 2.0 7.0 0.00 0.81 0.78 61 1011.1
20260902203335 89 173 2.0 7.0 0.00 0.81 0.78 61 1011.2
20260902203050 89 225 2.0 5.0 0.00 0.81 0.78 62 1011.1
20260902202334 89 213 2.0 7.0 0.00 0.81 0.78 61 1011.2
20260902201834 88 207 2.0 7.0 0.00 0.81 0.78 64 1011.2
20260902201334 88 161 1.0 6.0 0.00 0.81 0.78 64 1011.1
20260902200834 88 106 1.0 3.0 0.00 0.81 0.78 62 1011.1
20260902200335 89 157 1.0 3.0 0.00 0.81 0.78 64 1011.2
20260902195831 88 61 2.0 5.0 0.00 0.81 0.78 64 1011.3
20260902195818 88 34 2.0 6.0 0.00 0.81 0.78 63 1011.3
20260902194832 88 164 2.0 6.0 0.00 0.81 0.78 64 1011.4
20260902194332 87 182 2.0 5.0 0.00 0.81 0.78 64 1011.5
20260902193831 87 223 1.0 5.0 0.00 0.81 0.78 64 1011.7
20260902193331 86 196 2.0 8.0 0.00 0.81 0.78 65 1011.8
20260902192832 86 186 4.0 10.0 0.00 0.81 0.78 65 1012.0
20260902192331 86 172 5.0 10.0 0.00 0.81 0.78 66 1012.1
20260902192053 87 181 4.0 11.0 0.00 0.81 0.78 66 1012.1
20260902191327 88 173 3.0 11.0 0.00 0.81 0.78 63 1012.2
20260902191046 88 186 3.0 6.0 0.00 0.81 0.78 63 1012.3
20260902190327 88 221 2.0 6.0 0.00 0.81 0.78 62 1012.5
20260902185829 88 301 1.0 6.0 0.00 0.81 0.78 65 1012.4
20260902185327 88 205 2.0 8.0 0.00 0.81 0.78 63 1012.4
20260902184827 88 248 3.0 9.0 0.00 0.81 0.78 63 1012.4
20260902184327 88 158 2.0 9.0 0.00 0.81 0.78 64 1012.3
20260902183827 87 235 1.0 6.0 0.00 0.81 0.78 70 1012.4
20260902183813 87 242 1.0 3.0 0.00 0.81 0.78 67 1012.4
20260902182821 86 209 1.0 6.0 0.00 0.81 0.78 65 1012.6
20260902182315 86 209 3.0 6.0 0.00 0.81 0.78 66 1012.7
20260902181809 85 183 3.0 6.0 0.00 0.81 0.78 69 1012.7
20260902181303 85 204 3.0 9.0 0.00 0.81 0.78 70 1012.6
20260902180757 84 173 3.0 9.0 0.00 0.81 0.78 66 1012.7
20260902180252 84 171 2.0 8.0 0.00 0.81 0.78 69 1012.7
20260902175744 84 184 3.0 6.0 0.00 0.81 0.78 68 1012.7
20260902175239 83 206 4.0 9.0 0.00 0.81 0.78 69 1012.8
20260902174733 83 175 4.0 9.0 0.00 0.81 0.78 70 1012.7
20260902174227 82 178 3.0 8.0 0.00 0.81 0.78 70 1012.7
20260902173721 82 230 2.0 8.0 0.00 0.81 0.78 71 1012.7
20260902173215 82 163 2.0 8.0 0.00 0.81 0.78 71 1012.7
20260902172708 82 197 3.0 6.0 0.00 0.81 0.78 72 1012.7
20260902172203 82 184 3.0 9.0 0.00 0.81 0.78 72 1012.8
20260902171657 81 169 2.0 9.0 0.00 0.81 0.78 71 1012.9
20260902171420 81 196 1.0 5.0 0.00 0.81 0.78 73 1012.9
20260902170644 79 162 2.0 7.0 0.00 0.81 0.78 75 1012.8
20260902170139 79 153 2.0 7.0 0.00 0.81 0.78 74 1012.8
20260902165632 79 175 3.0 7.0 0.00 0.81 0.78 74 1012.8
20260902165348 78 171 1.0 8.0 0.00 0.81 0.78 75 1012.7
20260902164842 78 161 1.0 8.0 0.00 0.81 0.78 76 1012.7
20260902164115 78 153 1.0 7.0 0.00 0.81 0.78 75 1012.9
20260902163609 78 151 2.0 7.0 0.00 0.81 0.78 75 1012.9
20260902163303 77 153 2.0 5.0 0.00 0.81 0.78 77 1013.1
20260902163251 78 153 2.0 7.0 0.00 0.81 0.78 76 1013.0
20260902162051 77 86 2.0 7.0 0.00 0.81 0.78 77 1013.2
20260902161544 77 157 2.0 8.0 0.00 0.81 0.78 78 1013.3
20260902161039 76 153 4.0 9.0 0.00 0.81 0.78 81 1013.3
20260902160532 75 191 3.0 9.0 0.00 0.81 0.78 83 1013.4
20260902160027 73 146 1.0 5.0 0.00 0.81 0.78 88 1013.3
20260902155520 72 127 2.0 5.0 0.00 0.81 0.78 87 1013.2
20260902155232 72 167 4.0 11.0 0.00 0.81 0.78 88 1013.1
20260902154509 71 185 5.0 11.0 0.00 0.81 0.78 89 1013.0
20260902154225 71 182 5.0 9.0 0.00 0.81 0.78 89 1013.1
20260902153721 70 171 3.0 8.0 0.00 0.81 0.78 90 1012.9
20260902152950 70 176 4.0 10.0 0.00 0.81 0.78 90 1013.0
20260902152445 70 180 4.0 10.0 0.00 0.81 0.78 91 1013.0